Location: Sevilla
(37.3933°N, 5.9839°W)
Time: 12:22:37
(UTC+02:00)

S-56A Canister/Altair - Pass Details

Date: 25 June 2024
Orbit: 638 x 2488 km, 38.9° (Epoch: 14 July)

Event Time Altitude Azimuth Distance (km) Brightness Sun altitude
Rises 02:17:06 0° 283° (WNW) 4,773 11.8 -29.2°
Reaches altitude 10° 02:19:51 10° 283° (WNW) 4,004 11.3 -29.2°
Maximum altitude 02:31:11 86° 196° (SSW) 2,198 9.6 -29.2°
Drops below altitude 10° 02:46:12 10° 110° (ESE) 5,138 11.6 -29.1°
Sets 02:50:15 0° 110° (ESE) 6,150 12.0 -29.0°
